GSAT0214 (PRN E05)

Last updated on Mon Jul 22 2024 00:03:08 GMT+0000 (Coordinated Universal Time)

1 41862U 16069D 24202.83907224 -.00000007 00000+0 00000+0 0 9994 2 41862 55.1021 120.3806 0003369 296.2399 63.7248 1.70473865 47774

Satellite not in orbit

GSAT0214 (PRN E05)